Location: Cochran
(32.3868°N, 83.3546°W)
Time: 14:57:41
(UTC+00:00)

STARLINK-71 - Pass Details

Date: 18 February 2020
Orbit: 529 x 530 km, 53.0° (Epoch: 09 April)

Event Time Altitude Azimuth Distance (km) Brightness Sun altitude
Rises 23:30:05 0° 221° (SW) 2,650 8.1 -2.6°
Reaches altitude 10° 23:32:17 10° 220° (SW) 1,765 7.1 -3.0°
Maximum altitude 23:36:18 84° 133° (SE) 535 3.6 -3.9°
Drops below altitude 10° 23:40:20 10° 45° (NE) 1,777 5.7 -4.7°
Enters shadow 23:42:14 - 45° (NE) 2,541 6.5 -5.1°
